Location: Bernadets
(43.3537°N, 0.3167°E)
Time: 20:26:40
(UTC+00:00)

CZ-2C R/B - Visible Passes

Search period start: 25 May 2022 00:00
Search period end: 04 June 2022 00:00
Orbit: 784 x 870 km, 98.2° (Epoch: 24 May)

Date Brightness Start Highest point End Pass type
(mag) Time Alt. Az. Time Alt. Az. Time Alt. Az.
25 May 4.4 03:46:47 10° SE 03:51:30 37° ENE 03:56:18 10° N visible
26 May 5.1 03:28:44 10° ESE 03:32:59 26° ENE 03:37:18 10° N visible
27 May 5.5 03:10:58 10° ESE 03:14:31 19° ENE 03:18:06 10° NNE visible
28 May 5.7 02:53:41 10° E 02:56:06 13° ENE 02:58:32 10° NNE visible
31 May 4.8 03:35:17 10° SE 03:39:47 31° ENE 03:44:24 10° N visible
01 Jun 5.4 03:17:22 10° ESE 03:21:18 22° ENE 03:25:18 10° NNE visible
02 Jun 5.6 02:59:49 10° E 03:02:52 16° ENE 03:05:58 10° NNE visible
03 Jun 6.0 02:43:04 10° ENE 02:44:30 11° NE 02:45:56 10° NE visible
